| time (UTC) | temp F | wind direction | speed MPH | gust MPH | rain 1hr in | rain 24hr in | rain mn in | humidity % | barometer mb |
| 20260906124521 | 67 | 51 | 0.0 | 2.0 | 0.00 | 0.00 | 0.00 | 100 | 1021.2 |
| 20260906124014 | 67 | 37 | 0.0 | 2.0 | 0.00 | 0.00 | 0.00 | 100 | 1021.1 |
| 20260906123516 | 67 | 51 | 0.0 | 2.0 | 0.00 | 0.00 | 0.00 | 100 | 1021.0 |
| 20260906123019 | 67 | 62 | 0.0 | 2.0 | 0.00 | 0.00 | 0.00 | 100 | 1020.8 |
| 20260906122514 | 66 | 58 | 0.0 | 2.0 | 0.00 | 0.00 | 0.00 | 100 | 1020.9 |
| 20260906122014 | 66 | 63 | 0.0 | 2.0 | 0.00 | 0.00 | 0.00 | 100 | 1020.8 |
| 20260906121527 | 66 | 63 | 0.0 | 2.0 | 0.00 | 0.00 | 0.00 | 100 | 1020.9 |
| 20260906121019 | 66 | 32 | 0.0 | 1.0 | 0.00 | 0.00 | 0.00 | 100 | 1020.9 |
| 20260906120514 | 66 | 32 | 0.0 | 0.0 | 0.00 | 0.00 | 0.00 | 100 | 1021.0 |
| 20260906120030 | 66 | 32 | 0.0 | 0.0 | 0.00 | 0.00 | 0.00 | 100 | 1020.9 |
| 20260906115512 | 66 | 32 | 0.0 | 1.0 | 0.00 | 0.00 | 0.00 | 100 | 1020.8 |
| 20260906115012 | 66 | 32 | 0.0 | 2.0 | 0.00 | 0.00 | 0.00 | 100 | 1020.6 |
| 20260906114532 | 65 | 32 | 0.0 | 2.0 | 0.00 | 0.00 | 0.00 | 100 | 1020.5 |
| 20260906114008 | 65 | 32 | 0.0 | 1.0 | 0.00 | 0.00 | 0.00 | 100 | 1020.5 |
| 20260906113503 | 65 | 32 | 0.0 | 2.0 | 0.00 | 0.00 | 0.00 | 100 | 1020.3 |
| 20260906113004 | 65 | 32 | 0.0 | 2.0 | 0.00 | 0.00 | 0.00 | 100 | 1020.3 |
| 20260906112506 | 65 | 32 | 0.0 | 1.0 | 0.00 | 0.00 | 0.00 | 100 | 1020.2 |
| 20260906112010 | 65 | 32 | 0.0 | 1.0 | 0.00 | 0.00 | 0.00 | 100 | 1020.2 |
| 20260906111504 | 65 | 32 | 0.0 | 1.0 | 0.00 | 0.00 | 0.00 | 100 | 1020.1 |
| 20260906111005 | 65 | 32 | 0.0 | 0.0 | 0.00 | 0.00 | 0.00 | 100 | 1020.1 |
| 20260906110510 | 64 | 32 | 0.0 | 1.0 | 0.00 | 0.00 | 0.00 | 100 | 1020.1 |
| 20260906110004 | 64 | 32 | 0.0 | 1.0 | 0.00 | 0.00 | 0.00 | 100 | 1020.1 |
| 20260906105503 | 64 | 32 | 0.0 | 1.0 | 0.00 | 0.00 | 0.00 | 99 | 1020.0 |
| 20260906105008 | 64 | 32 | 0.0 | 1.0 | 0.00 | 0.00 | 0.00 | 99 | 1020.0 |
| 20260906104514 | 64 | 32 | 0.0 | 1.0 | 0.00 | 0.00 | 0.00 | 99 | 1020.0 |
| 20260906104003 | 64 | 32 | 0.0 | 1.0 | 0.00 | 0.00 | 0.00 | 99 | 1020.0 |
| 20260906103504 | 64 | 32 | 0.0 | 1.0 | 0.00 | 0.00 | 0.00 | 99 | 1019.9 |
| 20260906103015 | 64 | 32 | 0.0 | 1.0 | 0.00 | 0.00 | 0.00 | 99 | 1019.9 |
| 20260906102502 | 64 | 32 | 0.0 | 1.0 | 0.00 | 0.00 | 0.00 | 99 | 1019.9 |
| 20260906102008 | 64 | 32 | 0.0 | 1.0 | 0.00 | 0.00 | 0.00 | 99 | 1020.0 |
| 20260906101509 | 64 | 32 | 0.0 | 1.0 | 0.00 | 0.00 | 0.00 | 99 | 1020.0 |
| 20260906101011 | 64 | 32 | 0.0 | 0.0 | 0.00 | 0.00 | 0.00 | 99 | 1020.0 |
| 20260906100505 | 64 | 32 | 0.0 | 1.0 | 0.00 | 0.00 | 0.00 | 99 | 1020.0 |
| 20260906100009 | 64 | 32 | 0.0 | 2.0 | 0.00 | 0.00 | 0.00 | 99 | 1019.9 |
| 20260906095509 | 64 | 32 | 0.0 | 2.0 | 0.00 | 0.00 | 0.00 | 99 | 1020.0 |
| 20260906095012 | 64 | 32 | 0.0 | 2.0 | 0.00 | 0.00 | 0.00 | 99 | 1019.9 |
| 20260906094503 | 64 | 32 | 0.0 | 1.0 | 0.00 | 0.00 | 0.00 | 99 | 1019.8 |
| 20260906094007 | 64 | 32 | 0.0 | 2.0 | 0.00 | 0.00 | 0.00 | 98 | 1019.9 |
| 20260906093512 | 64 | 32 | 0.0 | 2.0 | 0.00 | 0.00 | 0.00 | 98 | 1020.0 |
| 20260906093003 | 64 | 32 | 0.0 | 1.0 | 0.00 | 0.00 | 0.00 | 98 | 1019.9 |
| 20260906092506 | 64 | 32 | 0.0 | 1.0 | 0.00 | 0.00 | 0.00 | 98 | 1019.8 |
| 20260906092007 | 64 | 32 | 0.0 | 1.0 | 0.00 | 0.00 | 0.00 | 98 | 1019.8 |
| 20260906091526 | 64 | 32 | 0.0 | 1.0 | 0.00 | 0.00 | 0.00 | 98 | 1019.7 |
| 20260906091006 | 64 | 32 | 0.0 | 1.0 | 0.00 | 0.00 | 0.00 | 98 | 1019.6 |
| 20260906090507 | 64 | 32 | 0.0 | 0.0 | 0.00 | 0.00 | 0.00 | 98 | 1019.6 |
| 20260906090018 | 64 | 32 | 0.0 | 0.0 | 0.00 | 0.00 | 0.00 | 98 | 1019.6 |
| 20260906085504 | 64 | 32 | 0.0 | 1.0 | 0.00 | 0.00 | 0.00 | 98 | 1019.7 |
| 20260906085005 | 64 | 32 | 0.0 | 1.0 | 0.00 | 0.00 | 0.00 | 98 | 1019.8 |
| 20260906084512 | 64 | 32 | 0.0 | 1.0 | 0.00 | 0.00 | 0.00 | 98 | 1019.9 |
| 20260906084016 | 64 | 32 | 0.0 | 1.0 | 0.00 | 0.00 | 0.00 | 98 | 1019.9 |
| 20260906083503 | 64 | 32 | 0.0 | 1.0 | 0.00 | 0.00 | 0.00 | 98 | 1019.8 |
| 20260906083010 | 64 | 32 | 0.0 | 1.0 | 0.00 | 0.00 | 0.00 | 97 | 1019.8 |
| 20260906082512 | 64 | 32 | 0.0 | 1.0 | 0.00 | 0.00 | 0.00 | 97 | 1019.8 |
| 20260906082004 | 63 | 32 | 0.0 | 1.0 | 0.00 | 0.00 | 0.00 | 97 | 1019.8 |
| 20260906081513 | 63 | 32 | 0.0 | 1.0 | 0.00 | 0.00 | 0.00 | 97 | 1019.8 |
| 20260906081007 | 63 | 32 | 0.0 | 1.0 | 0.00 | 0.00 | 0.00 | 97 | 1019.8 |
| 20260906080514 | 63 | 32 | 0.0 | 1.0 | 0.00 | 0.00 | 0.00 | 96 | 1019.7 |
| 20260906080004 | 63 | 32 | 0.0 | 1.0 | 0.00 | 0.00 | 0.00 | 96 | 1019.6 |
| 20260906075507 | 63 | 32 | 0.0 | 1.0 | 0.00 | 0.00 | 0.00 | 96 | 1019.7 |
| 20260906075011 | 63 | 32 | 0.0 | 1.0 | 0.00 | 0.00 | 0.00 | 96 | 1019.7 |
| 20260906074530 | 63 | 32 | 0.0 | 1.0 | 0.00 | 0.00 | 0.00 | 96 | 1019.7 |
| 20260906074003 | 64 | 32 | 0.0 | 2.0 | 0.00 | 0.00 | 0.00 | 95 | 1019.7 |
| 20260906073510 | 64 | 32 | 0.0 | 2.0 | 0.00 | 0.00 | 0.00 | 95 | 1019.7 |
| 20260906073023 | 64 | 32 | 0.0 | 2.0 | 0.00 | 0.00 | 0.00 | 95 | 1019.7 |
| 20260906072504 | 64 | 32 | 0.0 | 2.0 | 0.00 | 0.00 | 0.00 | 95 | 1019.6 |
| 20260906072007 | 64 | 32 | 0.0 | 0.0 | 0.00 | 0.00 | 0.00 | 95 | 1019.6 |
| 20260906071525 | 64 | 32 | 0.0 | 0.0 | 0.00 | 0.00 | 0.00 | 95 | 1019.6 |
| 20260906071016 | 64 | 32 | 0.0 | 0.0 | 0.00 | 0.00 | 0.00 | 94 | 1019.7 |
| 20260906070506 | 65 | 32 | 0.0 | 1.0 | 0.00 | 0.00 | 0.00 | 94 | 1019.7 |
| 20260906070015 | 65 | 32 | 0.0 | 1.0 | 0.00 | 0.00 | 0.00 | 94 | 1019.6 |
| 20260906065516 | 65 | 32 | 0.0 | 1.0 | 0.00 | 0.00 | 0.00 | 94 | 1019.6 |
| 20260906065005 | 65 | 32 | 0.0 | 1.0 | 0.00 | 0.00 | 0.00 | 94 | 1019.7 |
| 20260906064512 | 65 | 32 | 0.0 | 1.0 | 0.00 | 0.00 | 0.00 | 94 | 1019.7 |
| 20260906064011 | 65 | 32 | 0.0 | 1.0 | 0.00 | 0.00 | 0.00 | 94 | 1019.8 |
| 20260906063512 | 65 | 32 | 0.0 | 1.0 | 0.00 | 0.00 | 0.00 | 94 | 1019.8 |
| 20260906063007 | 65 | 32 | 0.0 | 1.0 | 0.00 | 0.00 | 0.00 | 94 | 1019.8 |
| 20260906062511 | 65 | 32 | 0.0 | 1.0 | 0.00 | 0.00 | 0.00 | 93 | 1019.8 |
| 20260906062014 | 66 | 32 | 0.0 | 1.0 | 0.00 | 0.00 | 0.00 | 93 | 1019.8 |
| 20260906061506 | 66 | 32 | 0.0 | 1.0 | 0.00 | 0.00 | 0.00 | 93 | 1019.7 |
| 20260906061017 | 66 | 32 | 0.0 | 1.0 | 0.00 | 0.00 | 0.00 | 93 | 1019.7 |
| 20260906060510 | 66 | 32 | 0.0 | 1.0 | 0.00 | 0.00 | 0.00 | 93 | 1019.7 |
| 20260906060027 | 66 | 32 | 0.0 | 1.0 | 0.00 | 0.00 | 0.00 | 93 | 1019.6 |
| 20260906055505 | 66 | 32 | 0.0 | 1.0 | 0.00 | 0.00 | 0.00 | 93 | 1019.6 |
| 20260906055011 | 66 | 32 | 0.0 | 1.0 | 0.00 | 0.00 | 0.00 | 92 | 1019.6 |
| 20260906054522 | 66 | 32 | 0.0 | 1.0 | 0.00 | 0.00 | 0.00 | 92 | 1019.6 |
| 20260906054014 | 66 | 32 | 0.0 | 1.0 | 0.00 | 0.00 | 0.00 | 92 | 1019.7 |
| 20260906053508 | 66 | 32 | 0.0 | 1.0 | 0.00 | 0.00 | 0.00 | 92 | 1019.7 |
| 20260906053018 | 66 | 32 | 0.0 | 1.0 | 0.00 | 0.00 | 0.00 | 92 | 1019.7 |
| 20260906052515 | 66 | 32 | 0.0 | 3.0 | 0.00 | 0.00 | 0.00 | 91 | 1019.7 |
| 20260906052006 | 66 | 32 | 0.0 | 3.0 | 0.00 | 0.00 | 0.00 | 91 | 1019.7 |
| 20260906051517 | 66 | 58 | 0.0 | 1.0 | 0.00 | 0.00 | 0.00 | 91 | 1019.7 |
| 20260906051014 | 66 | 58 | 0.0 | 2.0 | 0.00 | 0.00 | 0.00 | 90 | 1019.6 |
| 20260906050518 | 66 | 58 | 0.0 | 2.0 | 0.00 | 0.00 | 0.00 | 90 | 1019.6 |
| 20260906050010 | 66 | 58 | 0.0 | 2.0 | 0.00 | 0.00 | 0.00 | 90 | 1019.4 |
| 20260906045516 | 66 | 58 | 0.0 | 2.0 | 0.00 | 0.00 | 0.00 | 89 | 1019.4 |
| 20260906045016 | 66 | 58 | 0.0 | 2.0 | 0.00 | 0.00 | 0.00 | 89 | 1019.4 |
| 20260906044507 | 66 | 60 | 0.0 | 2.0 | 0.00 | 0.00 | 0.00 | 89 | 1019.4 |
| 20260906044014 | 67 | 49 | 0.0 | 2.0 | 0.00 | 0.00 | 0.00 | 89 | 1019.4 |
| 20260906043514 | 67 | 44 | 0.0 | 2.0 | 0.00 | 0.00 | 0.00 | 88 | 1019.4 |
| 20260906043033 | 67 | 51 | 0.0 | 2.0 | 0.00 | 0.00 | 0.00 | 88 | 1019.4 |
| 20260906042508 | 67 | 46 | 0.0 | 3.0 | 0.00 | 0.00 | 0.00 | 88 | 1019.4 |
| 20260906042010 | 67 | 65 | 0.0 | 4.0 | 0.00 | 0.00 | 0.00 | 87 | 1019.3 |
| 20260906041528 | 67 | 59 | 1.0 | 4.0 | 0.00 | 0.00 | 0.00 | 86 | 1019.1 |
| 20260906041018 | 67 | 64 | 1.0 | 3.0 | 0.00 | 0.00 | 0.00 | 86 | 1019.1 |
| 20260906040510 | 67 | 53 | 0.0 | 4.0 | 0.00 | 0.00 | 0.00 | 85 | 1019.0 |
| 20260906040023 | 67 | 63 | 1.0 | 4.0 | 0.00 | 0.00 | 0.00 | 85 | 1019.0 |
| 20260906035517 | 67 | 63 | 1.0 | 5.0 | 0.00 | 0.00 | 0.00 | 84 | 1018.9 |
| 20260906035008 | 67 | 51 | 1.0 | 6.0 | 0.00 | 0.00 | 0.00 | 84 | 1019.0 |
| 20260906034532 | 68 | 62 | 2.0 | 6.0 | 0.00 | 0.00 | 0.00 | 83 | 1018.9 |
| 20260906034014 | 68 | 64 | 3.0 | 6.0 | 0.00 | 0.00 | 0.00 | 83 | 1018.9 |
| 20260906033514 | 68 | 49 | 1.0 | 6.0 | 0.00 | 0.00 | 0.00 | 83 | 1018.9 |
| 20260906033016 | 68 | 65 | 1.0 | 6.0 | 0.00 | 0.00 | 0.00 | 83 | 1018.8 |
| 20260906032512 | 68 | 53 | 3.0 | 8.0 | 0.00 | 0.00 | 0.00 | 83 | 1018.9 |
| 20260906032016 | 68 | 82 | 2.0 | 8.0 | 0.00 | 0.00 | 0.00 | 84 | 1019.1 |
| 20260906031515 | 68 | 53 | 2.0 | 8.0 | 0.00 | 0.00 | 0.00 | 85 | 1019.0 |
| 20260906031013 | 68 | 58 | 3.0 | 8.0 | 0.00 | 0.00 | 0.00 | 86 | 1018.9 |
| 20260906030517 | 68 | 76 | 3.0 | 8.0 | 0.00 | 0.00 | 0.00 | 86 | 1018.9 |
| 20260906030033 | 68 | 32 | 4.0 | 8.0 | 0.00 | 0.00 | 0.00 | 88 | 1018.8 |
| 20260906025515 | 68 | 67 | 3.0 | 6.0 | 0.00 | 0.00 | 0.00 | 89 | 1018.7 |
| 20260906025014 | 69 | 49 | 3.0 | 6.0 | 0.00 | 0.00 | 0.00 | 89 | 1018.7 |
| 20260906024531 | 69 | 51 | 1.0 | 6.0 | 0.00 | 0.00 | 0.00 | 89 | 1018.6 |
| 20260906024012 | 69 | 44 | 3.0 | 6.0 | 0.00 | 0.00 | 0.00 | 89 | 1018.7 |
| 20260906023505 | 69 | 41 | 1.0 | 5.0 | 0.00 | 0.00 | 0.00 | 88 | 1018.5 |
| 20260906023006 | 69 | 75 | 2.0 | 4.0 | 0.00 | 0.00 | 0.00 | 88 | 1018.5 |
| 20260906022506 | 69 | 70 | 1.0 | 4.0 | 0.00 | 0.00 | 0.00 | 88 | 1018.5 |
| 20260906022011 | 69 | 58 | 1.0 | 5.0 | 0.00 | 0.00 | 0.00 | 87 | 1018.4 |
| 20260906021505 | 69 | 73 | 1.0 | 6.0 | 0.00 | 0.00 | 0.00 | 87 | 1018.3 |
| 20260906021006 | 69 | 60 | 1.0 | 6.0 | 0.00 | 0.00 | 0.00 | 87 | 1018.2 |
| 20260906020508 | 69 | 60 | 2.0 | 5.0 | 0.00 | 0.00 | 0.00 | 86 | 1018.3 |
| 20260906020004 | 69 | 56 | 0.0 | 4.0 | 0.00 | 0.00 | 0.00 | 86 | 1018.2 |
| 20260906015503 | 69 | 56 | 2.0 | 6.0 | 0.00 | 0.00 | 0.00 | 86 | 1018.2 |
| 20260906015007 | 70 | 58 | 2.0 | 6.0 | 0.00 | 0.00 | 0.00 | 86 | 1018.2 |
| 20260906014516 | 70 | 69 | 2.0 | 6.0 | 0.00 | 0.00 | 0.00 | 86 | 1018.2 |
| 20260906014002 | 70 | 42 | 2.0 | 6.0 | 0.00 | 0.00 | 0.00 | 86 | 1018.1 |
| 20260906013507 | 70 | 63 | 2.0 | 6.0 | 0.00 | 0.00 | 0.00 | 86 | 1018.2 |
| 20260906013012 | 70 | 70 | 2.0 | 8.0 | 0.00 | 0.00 | 0.00 | 85 | 1018.1 |
| 20260906012503 | 70 | 68 | 3.0 | 8.0 | 0.00 | 0.00 | 0.00 | 85 | 1018.2 |
| 20260906012003 | 70 | 53 | 4.0 | 6.0 | 0.00 | 0.00 | 0.00 | 86 | 1018.3 |
| 20260906011508 | 70 | 66 | 2.0 | 6.0 | 0.00 | 0.00 | 0.00 | 85 | 1018.3 |
| 20260906011009 | 70 | 66 | 3.0 | 7.0 | 0.00 | 0.00 | 0.00 | 85 | 1018.3 |
| 20260906010502 | 70 | 86 | 2.0 | 7.0 | 0.00 | 0.00 | 0.00 | 85 | 1018.3 |
| 20260906010005 | 70 | 87 | 3.0 | 10.0 | 0.00 | 0.00 | 0.00 | 86 | 1018.3 |
| 20260906005510 | 70 | 11 | 3.0 | 10.0 | 0.00 | 0.00 | 0.00 | 85 | 1018.4 |
| 20260906005012 | 70 | 56 | 4.0 | 10.0 | 0.00 | 0.00 | 0.00 | 86 | 1018.4 |
| 20260906004504 | 71 | 88 | 4.0 | 8.0 | 0.00 | 0.00 | 0.00 | 86 | 1018.4 |
| 20260906004008 | 71 | 61 | 4.0 | 8.0 | 0.00 | 0.00 | 0.00 | 86 | 1018.5 |
| 20260906003511 | 71 | 96 | 4.0 | 10.0 | 0.00 | 0.00 | 0.00 | 86 | 1018.4 |
| 20260906003004 | 71 | 60 | 5.0 | 10.0 | 0.00 | 0.00 | 0.00 | 86 | 1018.3 |
| 20260906002504 | 71 | 95 | 5.0 | 8.0 | 0.00 | 0.00 | 0.00 | 86 | 1018.3 |
| 20260906002009 | 72 | 65 | 3.0 | 8.0 | 0.00 | 0.00 | 0.00 | 85 | 1018.3 |
| 20260906001540 | 72 | 54 | 3.0 | 8.0 | 0.00 | 0.00 | 0.00 | 85 | 1018.3 |
| 20260906001006 | 72 | 75 | 2.0 | 5.0 | 0.00 | 0.00 | 0.00 | 84 | 1018.3 |
| 20260906000504 | 72 | 58 | 2.0 | 8.0 | 0.00 | 0.00 | 0.00 | 83 | 1018.3 |
| 20260906000017 | 72 | 32 | 3.0 | 9.0 | 0.00 | 0.00 | 0.00 | 83 | 1018.3 |
| 20260905235506 | 72 | 77 | 4.0 | 9.0 | 0.00 | 0.00 | 0.00 | 83 | 1018.2 |
| 20260905235007 | 73 | 49 | 3.0 | 8.0 | 0.00 | 0.00 | 0.00 | 82 | 1018.1 |
| 20260905234509 | 73 | 56 | 4.0 | 8.0 | 0.00 | 0.00 | 0.00 | 81 | 1018.1 |
| 20260905234013 | 73 | 77 | 4.0 | 8.0 | 0.00 | 0.00 | 0.00 | 81 | 1018.2 |
| 20260905233504 | 74 | 52 | 2.0 | 6.0 | 0.00 | 0.00 | 0.00 | 81 | 1018.3 |
| 20260905233015 | 74 | 54 | 2.0 | 7.0 | 0.00 | 0.00 | 0.00 | 81 | 1018.3 |
| 20260905232510 | 74 | 48 | 4.0 | 7.0 | 0.00 | 0.00 | 0.00 | 81 | 1018.3 |
| 20260905232004 | 74 | 49 | 1.0 | 3.0 | 0.00 | 0.00 | 0.00 | 82 | 1018.2 |
| 20260905231512 | 74 | 51 | 0.0 | 5.0 | 0.00 | 0.00 | 0.00 | 82 | 1018.3 |
| 20260905231009 | 74 | 59 | 3.0 | 6.0 | 0.00 | 0.00 | 0.00 | 81 | 1018.3 |
| 20260905230512 | 74 | 48 | 2.0 | 9.0 | 0.00 | 0.00 | 0.00 | 80 | 1018.2 |
| 20260905230004 | 74 | 68 | 5.0 | 9.0 | 0.00 | 0.00 | 0.00 | 79 | 1018.2 |
| 20260905225507 | 75 | 28 | 3.0 | 6.0 | 0.00 | 0.00 | 0.00 | 80 | 1018.1 |
| 20260905225009 | 75 | 42 | 1.0 | 8.0 | 0.00 | 0.00 | 0.00 | 80 | 1018.0 |
| 20260905224527 | 75 | 58 | 2.0 | 10.0 | 0.00 | 0.00 | 0.00 | 79 | 1017.9 |
| 20260905224004 | 75 | 101 | 4.0 | 10.0 | 0.00 | 0.00 | 0.00 | 77 | 1018.0 |
| 20260905223508 | 76 | 65 | 4.0 | 9.0 | 0.00 | 0.00 | 0.00 | 77 | 1017.8 |
| 20260905223039 | 76 | 56 | 3.0 | 9.0 | 0.00 | 0.00 | 0.00 | 76 | 1017.8 |
| 20260905222503 | 76 | 37 | 2.0 | 8.0 | 0.00 | 0.00 | 0.00 | 76 | 1017.8 |
| 20260905222007 | 76 | 53 | 3.0 | 8.0 | 0.00 | 0.00 | 0.00 | 75 | 1017.7 |
| 20260905221522 | 76 | 82 | 3.0 | 7.0 | 0.00 | 0.00 | 0.00 | 75 | 1017.8 |
| 20260905221017 | 75 | 65 | 3.0 | 8.0 | 0.00 | 0.00 | 0.00 | 77 | 1017.7 |
| 20260905220510 | 75 | 89 | 3.0 | 8.0 | 0.00 | 0.00 | 0.00 | 78 | 1017.8 |
| 20260905220015 | 74 | 32 | 4.0 | 8.0 | 0.00 | 0.00 | 0.00 | 79 | 1017.7 |
| 20260905215514 | 75 | 74 | 4.0 | 8.0 | 0.00 | 0.00 | 0.00 | 79 | 1017.7 |
| 20260905215005 | 75 | 60 | 3.0 | 8.0 | 0.00 | 0.00 | 0.00 | 80 | 1017.6 |
| 20260905214512 | 75 | 61 | 3.0 | 12.0 | 0.00 | 0.00 | 0.00 | 80 | 1017.6 |
| 20260905214011 | 75 | 30 | 4.0 | 12.0 | 0.00 | 0.00 | 0.00 | 80 | 1017.6 |
| 20260905213516 | 76 | 38 | 4.0 | 8.0 | 0.00 | 0.00 | 0.00 | 80 | 1017.5 |
| 20260905213009 | 76 | 37 | 2.0 | 8.0 | 0.00 | 0.00 | 0.00 | 79 | 1017.7 |
| 20260905212510 | 76 | 68 | 2.0 | 9.0 | 0.00 | 0.00 | 0.00 | 79 | 1017.7 |
| 20260905212014 | 76 | 77 | 5.0 | 9.0 | 0.00 | 0.00 | 0.00 | 78 | 1017.6 |
| 20260905211506 | 77 | 58 | 4.0 | 8.0 | 0.00 | 0.00 | 0.00 | 79 | 1017.5 |
| 20260905211008 | 76 | 193 | 3.0 | 9.0 | 0.00 | 0.00 | 0.00 | 79 | 1017.5 |
| 20260905210512 | 76 | 49 | 3.0 | 9.0 | 0.00 | 0.00 | 0.00 | 80 | 1017.6 |
| 20260905210038 | 76 | 56 | 3.0 | 9.0 | 0.00 | 0.00 | 0.00 | 81 | 1017.6 |
| 20260905205503 | 76 | 43 | 2.0 | 9.0 | 0.00 | 0.00 | 0.00 | 81 | 1017.6 |
| 20260905205008 | 76 | 46 | 4.0 | 8.0 | 0.00 | 0.00 | 0.00 | 80 | 1017.6 |
| 20260905204520 | 76 | 52 | 4.0 | 9.0 | 0.00 | 0.00 | 0.00 | 79 | 1017.6 |
| 20260905204016 | 77 | 48 | 4.0 | 9.0 | 0.00 | 0.00 | 0.00 | 78 | 1017.6 |
| 20260905203511 | 77 | 74 | 5.0 | 7.0 | 0.00 | 0.00 | 0.00 | 77 | 1017.6 |
| 20260905203018 | 77 | 91 | 2.0 | 7.0 | 0.00 | 0.00 | 0.00 | 79 | 1017.6 |
| 20260905202514 | 77 | 76 | 2.0 | 7.0 | 0.00 | 0.00 | 0.00 | 79 | 1017.6 |
| 20260905202004 | 77 | 62 | 2.0 | 5.0 | 0.00 | 0.00 | 0.00 | 79 | 1017.7 |
| 20260905201523 | 77 | 55 | 2.0 | 5.0 | 0.00 | 0.00 | 0.00 | 79 | 1017.6 |
| 20260905201014 | 77 | 57 | 3.0 | 7.0 | 0.00 | 0.00 | 0.00 | 78 | 1017.6 |
| 20260905200520 | 77 | 67 | 3.0 | 8.0 | 0.00 | 0.00 | 0.00 | 78 | 1017.5 |
| 20260905200012 | 77 | 27 | 2.0 | 8.0 | 0.00 | 0.00 | 0.00 | 77 | 1017.5 |
| 20260905195513 | 78 | 84 | 4.0 | 8.0 | 0.00 | 0.00 | 0.00 | 75 | 1017.5 |
| 20260905195015 | 78 | 63 | 2.0 | 6.0 | 0.00 | 0.00 | 0.00 | 75 | 1017.6 |
| 20260905194505 | 78 | 75 | 2.0 | 5.0 | 0.00 | 0.00 | 0.00 | 76 | 1017.6 |
| 20260905194009 | 78 | 19 | 0.0 | 7.0 | 0.00 | 0.00 | 0.00 | 77 | 1017.6 |
| 20260905193513 | 78 | 56 | 2.0 | 7.0 | 0.00 | 0.00 | 0.00 | 76 | 1017.6 |
| 20260905193036 | 79 | 70 | 3.0 | 9.0 | 0.00 | 0.00 | 0.00 | 75 | 1017.6 |
| 20260905192508 | 80 | 65 | 2.0 | 9.0 | 0.00 | 0.00 | 0.00 | 73 | 1017.6 |
| 20260905192013 | 80 | 49 | 0.0 | 4.0 | 0.00 | 0.00 | 0.00 | 72 | 1017.5 |
| 20260905191528 | 79 | 25 | 1.0 | 5.0 | 0.00 | 0.00 | 0.00 | 74 | 1017.6 |
| 20260905191004 | 79 | 55 | 2.0 | 6.0 | 0.00 | 0.00 | 0.00 | 74 | 1017.5 |
| 20260905190510 | 79 | 32 | 2.0 | 6.0 | 0.00 | 0.00 | 0.00 | 74 | 1017.4 |
| 20260905190026 | 79 | 49 | 1.0 | 7.0 | 0.00 | 0.00 | 0.00 | 74 | 1017.4 |
| 20260905185515 | 80 | 56 | 2.0 | 7.0 | 0.00 | 0.00 | 0.00 | 73 | 1017.5 |
| 20260905185007 | 79 | 30 | 0.0 | 4.0 | 0.00 | 0.00 | 0.00 | 73 | 1017.5 |
| 20260905184533 | 79 | 37 | 1.0 | 6.0 | 0.00 | 0.00 | 0.00 | 73 | 1017.5 |
| 20260905184015 | 79 | 38 | 1.0 | 7.0 | 0.00 | 0.00 | 0.00 | 72 | 1017.6 |
| 20260905183517 | 79 | 36 | 3.0 | 7.0 | 0.00 | 0.00 | 0.00 | 72 | 1017.6 |
| 20260905183019 | 80 | 79 | 1.0 | 5.0 | 0.00 | 0.00 | 0.00 | 72 | 1017.5 |
| 20260905182514 | 80 | 32 | 0.0 | 3.0 | 0.00 | 0.00 | 0.00 | 73 | 1017.5 |
| 20260905182014 | 79 | 279 | 0.0 | 5.0 | 0.00 | 0.00 | 0.00 | 74 | 1017.5 |
| 20260905181512 | 79 | 57 | 0.0 | 5.0 | 0.00 | 0.00 | 0.00 | 76 | 1017.7 |
| 20260905181011 | 78 | 65 | 2.0 | 6.0 | 0.00 | 0.00 | 0.00 | 75 | 1017.7 |
| 20260905180516 | 79 | 16 | 2.0 | 6.0 | 0.00 | 0.00 | 0.00 | 74 | 1017.7 |
| 20260905180038 | 79 | 46 | 1.0 | 4.0 | 0.00 | 0.00 | 0.00 | 74 | 1017.8 |
| 20260905175512 | 79 | 55 | 0.0 | 4.0 | 0.00 | 0.00 | 0.00 | 73 | 1017.7 |
| 20260905175015 | 79 | 36 | 0.0 | 3.0 | 0.00 | 0.00 | 0.00 | 74 | 1017.7 |
| 20260905174528 | 79 | 47 | 1.0 | 3.0 | 0.00 | 0.00 | 0.00 | 72 | 1017.8 |
| 20260905174006 | 80 | 13 | 0.0 | 4.0 | 0.00 | 0.00 | 0.00 | 73 | 1017.8 |
| 20260905173503 | 80 | 54 | 1.0 | 4.0 | 0.00 | 0.00 | 0.00 | 73 | 1017.8 |
| 20260905173005 | 80 | 13 | 0.0 | 2.0 | 0.00 | 0.00 | 0.00 | 75 | 1017.8 |
| 20260905172508 | 79 | 331 | 0.0 | 2.0 | 0.00 | 0.00 | 0.00 | 78 | 1017.8 |
| 20260905172010 | 78 | 281 | 0.0 | 1.0 | 0.00 | 0.00 | 0.00 | 78 | 1017.8 |
| 20260905171506 | 78 | 31 | 0.0 | 2.0 | 0.00 | 0.00 | 0.00 | 79 | 1017.9 |
| 20260905171005 | 77 | 52 | 0.0 | 3.0 | 0.00 | 0.00 | 0.00 | 79 | 1017.8 |
| 20260905170510 | 77 | 63 | 0.0 | 3.0 | 0.00 | 0.00 | 0.00 | 78 | 1017.8 |
| 20260905170003 | 78 | 36 | 0.0 | 3.0 | 0.00 | 0.00 | 0.00 | 78 | 1017.8 |
| 20260905165502 | 78 | 36 | 0.0 | 3.0 | 0.00 | 0.00 | 0.00 | 77 | 1017.8 |
| 20260905165008 | 78 | 40 | 0.0 | 2.0 | 0.00 | 0.00 | 0.00 | 77 | 1017.8 |
| 20260905164515 | 78 | 38 | 0.0 | 3.0 | 0.00 | 0.00 | 0.00 | 78 | 1017.8 |
| 20260905164003 | 78 | 60 | 0.0 | 3.0 | 0.00 | 0.00 | 0.00 | 78 | 1017.7 |
| 20260905163505 | 77 | 43 | 0.0 | 3.0 | 0.00 | 0.00 | 0.00 | 81 | 1017.7 |
| 20260905163012 | 76 | 257 | 0.0 | 3.0 | 0.00 | 0.00 | 0.00 | 84 | 1017.8 |
| 20260905162502 | 76 | 48 | 0.0 | 3.0 | 0.00 | 0.00 | 0.00 | 84 | 1017.9 |
| 20260905162002 | 75 | 1 | 0.0 | 3.0 | 0.00 | 0.00 | 0.00 | 85 | 1017.9 |
| 20260905161510 | 75 | 86 | 1.0 | 3.0 | 0.00 | 0.00 | 0.00 | 86 | 1017.8 |
| 20260905161013 | 75 | 49 | 1.0 | 3.0 | 0.00 | 0.00 | 0.00 | 86 | 1017.9 |
| 20260905160502 | 75 | 49 | 0.0 | 1.0 | 0.00 | 0.00 | 0.00 | 87 | 1017.9 |
| 20260905160008 | 75 | 49 | 0.0 | 1.0 | 0.00 | 0.00 | 0.00 | 87 | 1017.9 |
| 20260905155508 | 74 | 49 | 0.0 | 2.0 | 0.00 | 0.00 | 0.00 | 88 | 1017.9 |
| 20260905155012 | 74 | 49 | 0.0 | 3.0 | 0.00 | 0.00 | 0.00 | 88 | 1017.9 |
| 20260905154503 | 74 | 39 | 1.0 | 3.0 | 0.00 | 0.00 | 0.00 | 89 | 1017.8 |
| 20260905154006 | 74 | 40 | 0.0 | 3.0 | 0.00 | 0.00 | 0.00 | 90 | 1017.8 |
| 20260905153511 | 74 | 49 | 0.0 | 3.0 | 0.00 | 0.00 | 0.00 | 91 | 1017.7 |
| 20260905153003 | 73 | 49 | 0.0 | 3.0 | 0.00 | 0.01 | 0.00 | 92 | 1017.7 |
| 20260905152506 | 73 | 49 | 1.0 | 3.0 | 0.00 | 0.01 | 0.00 | 93 | 1017.7 |
| 20260905152008 | 73 | 46 | 0.0 | 4.0 | 0.00 | 0.01 | 0.00 | 94 | 1017.6 |
| 20260905151523 | 72 | 46 | 0.0 | 5.0 | 0.00 | 0.01 | 0.00 | 94 | 1017.6 |
| 20260905151003 | 72 | 63 | 2.0 | 5.0 | 0.00 | 0.02 | 0.00 | 95 | 1017.7 |
| 20260905150511 | 72 | 57 | 1.0 | 9.0 | 0.00 | 0.04 | 0.00 | 95 | 1017.7 |
| 20260905150023 | 72 | 63 | 2.0 | 9.0 | 0.00 | 0.05 | 0.00 | 95 | 1017.6 |
| 20260905145503 | 72 | 58 | 4.0 | 9.0 | 0.00 | 0.11 | 0.00 | 95 | 1017.5 |
| 20260905145006 | 72 | 92 | 3.0 | 7.0 | 0.00 | 0.14 | 0.00 | 96 | 1017.4 |
| 20260905144515 | 72 | 94 | 2.0 | 7.0 | 0.00 | 0.15 | 0.00 | 96 | 1017.4 |
| 20260905144010 | 72 | 36 | 2.0 | 6.0 | 0.00 | 0.16 | 0.00 | 97 | 1017.3 |
| 20260905143504 | 72 | 56 | 1.0 | 7.0 | 0.00 | 0.16 | 0.00 | 97 | 1017.3 |
| 20260905143009 | 72 | 57 | 2.0 | 7.0 | 0.00 | 0.16 | 0.00 | 97 | 1017.3 |
| 20260905142511 | 72 | 46 | 3.0 | 7.0 | 0.00 | 0.16 | 0.00 | 98 | 1017.2 |
| 20260905142002 | 72 | 23 | 1.0 | 7.0 | 0.00 | 0.16 | 0.00 | 98 | 1017.2 |
| 20260905141511 | 72 | 72 | 2.0 | 8.0 | 0.00 | 0.16 | 0.00 | 98 | 1017.1 |
| 20260905141009 | 72 | 59 | 2.0 | 8.0 | 0.00 | 0.16 | 0.00 | 99 | 1017.0 |
| 20260905140511 | 72 | 54 | 1.0 | 6.0 | 0.00 | 0.16 | 0.00 | 99 | 1017.0 |
| 20260905140004 | 72 | 65 | 3.0 | 6.0 | 0.00 | 0.16 | 0.00 | 99 | 1016.9 |
| 20260905135509 | 72 | 67 | 1.0 | 6.0 | 0.00 | 0.16 | 0.00 | 100 | 1017.0 |
| 20260905135011 | 72 | 57 | 2.0 | 6.0 | 0.00 | 0.16 | 0.00 | 100 | 1017.0 |
| 20260905134534 | 72 | 70 | 2.0 | 6.0 | 0.00 | 0.16 | 0.00 | 100 | 1016.9 |
| 20260905134006 | 72 | 40 | 2.0 | 7.0 | 0.00 | 0.16 | 0.00 | 100 | 1017.0 |
| 20260905133510 | 72 | 52 | 2.0 | 7.0 | 0.00 | 0.16 | 0.00 | 100 | 1017.0 |
| 20260905133023 | 72 | 61 | 1.0 | 7.0 | 0.00 | 0.16 | 0.00 | 100 | 1017.1 |
| 20260905132504 | 72 | 54 | 2.0 | 5.0 | 0.00 | 0.16 | 0.00 | 100 | 1017.0 |
| 20260905132011 | 72 | 34 | 3.0 | 6.0 | 0.00 | 0.16 | 0.00 | 100 | 1017.0 |
| 20260905131515 | 71 | 50 | 3.0 | 6.0 | 0.00 | 0.16 | 0.00 | 100 | 1017.1 |
| 20260905131018 | 71 | 107 | 2.0 | 5.0 | 0.00 | 0.16 | 0.00 | 100 | 1017.1 |
| 20260905130503 | 71 | 61 | 2.0 | 4.0 | 0.00 | 0.16 | 0.00 | 100 | 1017.3 |
| 20260905130014 | 71 | 62 | 0.0 | 4.0 | 0.00 | 0.16 | 0.00 | 100 | 1017.4 |
| 20260905125514 | 71 | 52 | 1.0 | 6.0 | 0.00 | 0.16 | 0.00 | 100 | 1017.2 |
| 20260905125004 | 71 | 77 | 2.0 | 6.0 | 0.00 | 0.16 | 0.00 | 100 | 1017.0 |